Regional Weather Roundup
Issued by NWS

Home | Current Version | Previous Version | Graphics & Text | Print | Product List | Glossary On
Versions: 1 2 3 4 5 6 7 8 9 10 11 12 13 14 15 16 17 18 19 20 21 22 23 24 25 26 27 28 29 30 31 32 33 34 35 36 37 38 39 40 41 42 43 44 45 46 47 48 49 50
930
ASUS45 KTFX 261910
RWRMT
MONTANA REGIONAL WEATHER ROUNDUP
NATIONAL WEATHER SERVICE GREAT FALLS MT
100 PM MDT TUE JUL 26 2016

NOTE: "FAIR" INDICATES FEW OR NO CLOUDS BELOW 12000 FEET WITH NO
SIGNIFICANT WEATHER AND/OR OBSTRUCTIONS TO VISIBILITY.

MTZ001>007-043-262000-
WEST OF THE DIVIDE

CITY           SKY/WX    TMP DP  RH WIND       PRES   REMARKS
KALISPELL      MOSUNNY   80  54  40 N18G28    30.08S
MISSOULA       MOSUNNY   82  44  26 CALM      30.07F
BUTTE          CLOUDY    80  34  19 VRB3      30.18F
MULLAN PASS    PTSUNNY   70  48  45 NW7       30.25S
ANACONDA         N/A     70  52  52 N7        30.15R
DEER LODGE       N/A     75  50  41 NE5       30.17F
EUREKA           N/A     63  59  88 W6        30.15F
HAMILTON         N/A     77  46  33 CALM      30.08F
LIBBY            N/A     75  54  46 NW17      30.10R
PLAINS           N/A     90  51  26 W9        30.03F
RONAN            N/A     84  56  38 CALM      30.11S
$$

MTZ008-052>055-262000-
SOUTHWEST MONTANA

CITY           SKY/WX    TMP DP  RH WIND       PRES   REMARKS
BOZEMAN        SUNNY     84  48  28 NW6       30.13F
DILLON         MOSUNNY   80  47  31 NE8       30.13F
W YELLOWSTONE  MOSUNNY   79  27  14 S8        30.26F
ENNIS          SUNNY     84  30  14 CALM      30.20F
THREE FORKS      N/A     83  83 100 SE3       30.10F HX  99
TWIN BRIDGES     N/A     83  44  25 W5        30.11F
$$

MTZ009-010-012-014-046-048-049-054-262000-
EAST SLOPES AND CENTRAL MONTANA

CITY           SKY/WX    TMP DP  RH WIND       PRES   REMARKS
CUT BANK       MOSUNNY   80  54  40 SE10      30.07F
GREAT FALLS    SUNNY     83  50  31 VRB6      30.08F
MALMSTROM AFB  SUNNY     83  47  28 E10       30.07F
HELENA         MOSUNNY   81  48  31 VRB6      30.08F
CHOTEAU          N/A     84  52  32 SE12      30.10F
CONRAD           N/A     84  56  38 E2        30.10F
$$

MTZ011-013-016-021-045-047-050-051-262000-
NORTH CENTRAL MONTANA

CITY           SKY/WX    TMP DP  RH WIND       PRES   REMARKS
HAVRE          SUNNY     84  59  42 E10       30.03F
LEWISTOWN      SUNNY     83  52  34 CALM      30.12F
N BAR RANCH      N/A     82  46  28 SE8       30.15S
CHINOOK          N/A     81  61  50 E9        30.04F
$$

MTZ017>020-022>027-061-062-262000-
NORTHEAST MONTANA

CITY           SKY/WX    TMP DP  RH WIND       PRES   REMARKS
GLASGOW        CLOUDY    79  63  57 NE17      30.07F
JORDAN           N/A     83  53  35 SE12G17   30.06F
SIDNEY         CLOUDY    74  63  68 NE7       30.08F
WOLF POINT     CLOUDY    79  59  50 E12       30.09R
PLENTYWOOD       N/A     73  55  53 E7        30.12R
POPLAR           N/A     75  59  57 E14G20    30.09F
SCOBEY           N/A     71  51  49 NE9       30.10F
$$

MTZ028>42-056>058-262000-
SOUTHCENTRAL AND SOUTHEAST MONTANA

CITY           SKY/WX    TMP DP  RH WIND       PRES   REMARKS
BAKER          SUNNY     81  58  45 NE9       30.08S
BILLINGS       MOSUNNY   87  44  22 VRB5      30.07F
LIVINGSTON     SUNNY     88  40  18 VRB7G16   30.11F
MILES CITY     SUNNY     86  53  32 VRB5      30.04F
EKALAKA          N/A     79  56  45 CALM      30.06
FORSYTH          N/A     84  55  37 SE5       30.04S
LAUREL           N/A     87  46  23 NE2       30.06F
ROUNDUP          N/A     84  49  29 SW2       29.99F
$$

REGIONAL REPORTS...DAKOTAS

CITY           SKY/WX    TMP DP  RH WIND       PRES   REMARKS
WILLISTON      CLOUDY    80  60  50 N10       30.08F
MINOT          CLOUDY    84  63  49 NW8       30.03F
DICKINSON      CLOUDY    72  64  76 N15       30.05R
BEACH            N/A     73  61  64 NE14      30.12S
CROSBY           N/A     72  61  68 E3        30.14R
WATFORD CITY     N/A    N/A N/A N/A MISG        N/A
BISMARCK       CLOUDY    75  67  76 N15G24    29.90F
GRAND FORKS    MOSUNNY   87  65  47 NE9       29.95F
FARGO          SUNNY     83  70  64 VRB5      29.92F
BUFFALO SD       N/A     78  59  51 N7        30.00S
RAPID CITY     SUNNY     84  56  38 SE9       30.05S
$$

REGIONAL REPORTS...WYOMING/IDAHO/WASHINGTON

CITY           SKY/WX    TMP DP  RH WIND       PRES   REMARKS
GILLETTE       SUNNY     86  48  26 N12       30.10F
SHERIDAN       SUNNY     88  45  22 VRB7      30.09S
BUFFALO WY     SUNNY     84  41  21 VRB7      30.16F
CODY           SUNNY     81  46  30 NE12G18   30.16F
YELLOWSTONE LA   N/A     70  43  37 VRB5      30.37F
IDAHO FALLS    MOSUNNY   89  36  15 N5        30.11F
SALMON         CLOUDY    75  45  33 N9G21     30.10R
BOISE          SUNNY     89  43  20 VRB6      30.00F
SPOKANE        PTSUNNY   82  51  34 E8        30.07S
$$

REGIONAL REPORTS...ALBERTA

CITY           SKY/WX    TMP DP  RH WIND       PRES   REMARKS
EDMONTON       MOSUNNY   75  57  53 S2        30.06S
CALGARY        MOSUNNY   75  59  57 N8        30.11S
LETHBRIDGE     PTSUNNY   77  63  61 E6        30.07S
MEDICINE HAT   PTSUNNY   84  55  37 VRB2      30.05F
WATERTON GATE    N/A     61  55  82 N9          N/A
CARDSTON         N/A    N/A N/A N/A NW12        N/A
MILK RIVER       N/A     82  55  39 SE10        N/A
$$

REGIONAL REPORTS...SASKATCHEWAN

CITY           SKY/WX    TMP DP  RH WIND       PRES   REMARKS
SWIFT CURRENT  PTSUNNY   73  57  56 E8        30.13S
REGINA         PTSUNNY   75  54  46 VRB5      30.12S
SASKATOON      PTSUNNY   75  45  33 SE8       30.15R
CYPRESS HILLS    N/A     70  55  60 SE9         N/A
VAL MARIE        N/A     68  57  68 N13G21      N/A
ROCKGLEN         N/A     64  59  82 E8          N/A
ASSINIBOIA       N/A     77  59  53 S10         N/A
$$




USA.gov is the U.S. government's official web portal to all federal, state and local government web resources and services.